Regional Weather Roundup
Issued by NWS Albany, NY

Home | Current Version | Previous Version | Graphics & Text | Print | Product List | Glossary Off
Versions: 1 2 3 4 5 6 7 8 9 10 11 12 13 14 15 16 17 18 19 20 21 22 23 24 25 26 27 28 29 30 31 32 33 34 35 36 37 38 39 40 41 42 43 44 45 46 47 48 49 50

000
ASUS41 KALY 291410
RWRALY

NEW YORK STATE HOURLY WEATHER ROUNDUP
NATIONAL WEATHER SERVICE ALBANY NY
1000 AM EDT MON JUN 29 2015

NOTE: "FAIR" INDICATES FEW OR NO CLOUDS BELOW 12,000 FEET WITH NO
SIGNIFICANT WEATHER AND/OR NO OBSTRUCTIONS TO VISIBILITY.

NYZ032-033-038>043-046>054-057>066-NYZ062>081-291500-
EAST


CITY           SKY/WX    TMP DP  RH WIND       PRES   REMARKS
ALBANY         PTSUNNY   67  57  70 W7        29.84S
GLENS FALLS    CLOUDY    63  58  83 SE9       29.82R
POUGHKEEPSIE   CLOUDY    68  56  65 SW3       29.85R
NEWBURGH       PTSUNNY   64  59  82 NW16      29.88R
MONTGOMERY     MOSUNNY   68  58  70 W10       29.87R
WHITE PLAINS   PTSUNNY   66  56  70 VRB5      29.87R
ISLIP          MOSUNNY   71  56  58 W13G18    29.86R
NEW YORK CITY  PTSUNNY   69  54  58 W13G18    29.88R
CENTRAL PARK   CLOUDY    69  54  58 VRB7      29.91S
$$

NYZ005>009-017-018-044>046-055-056-291500-
CENTRAL


CITY           SKY/WX    TMP DP  RH WIND       PRES   REMARKS
FULTON         CLOUDY    60  57  89 W8        29.88R
SYRACUSE       LGT RAIN  61  59  93 W9        29.88R FOG
ROME           CLOUDY    62  57  83 W12       29.87R
ELMIRA         CLOUDY    61  58  90 W6        29.92R
BINGHAMTON     CLOUDY    58  56  93 W12       29.91R
MONTICELLO     CLOUDY    61  55  82 NW6       29.92R
$$

NYZ026>034-041>043-291500-
NORTH


CITY           SKY/WX    TMP DP  RH WIND       PRES   REMARKS
WATERTOWN      CLOUDY    63  57  81 W9        29.85S
FORT DRUM      NOT AVBL
MASSENA        CLOUDY    59  56  89 W6        29.85S
SARANAC LAKE   CLOUDY    56  53  90 VRB5      29.82R
PLATTSBURGH    CLOUDY    60  56  86 NE5       29.81R
$$

NYZ001>004-010>016-019>021-291500-
WEST


CITY           SKY/WX    TMP DP  RH WIND       PRES   REMARKS
NIAGARA FALLS  PTSUNNY   66  54  65 NW9       29.91R
BUFFALO        PTSUNNY   65  55  70 W10       29.92R
DUNKIRK        MOSUNNY   66  55  67 SW5       29.93R
JAMESTOWN      MOSUNNY   61  54  77 S6        29.97R
WELLSVILLE     MOSUNNY   63  53  70 NW10      29.96S
ROCHESTER      CLOUDY    62  57  83 W8        29.91R
PENN YAN       CLOUDY    62  55  77 W6        29.91R
$$

             KEY
       WCI = WIND CHILL INDEX
       VSB = VISIBILITY
       HX  = HEAT INDEX
$$


USA.gov is the U.S. government's official web portal to all federal, state and local government web resources and services.